When you browse on this site, cookies collect data to enhance your experience and personalize the content and advertising you see.
Visit our Privacy Policy to learn more. By continuing to use the site, you agree to this use of cookies and data.
  • In Hungary
  • List of Countries
  • For 7 days
  • Water Temperature
  • Satellite Maps
  • Weather Map
  • News
  • Weather Widgets
  • user-avatar
    Login

    Hourly Weather Zottegem

    Today, 22 March, Friday

    Time Temperature Precipitation Wind Pressure Humidity
    00:00 +7°C° 0 mm 2 mps 768 mmHg 93%
    01:00 +7°C° 0 mm 2 mps 768 mmHg 94%
    02:00 +7°C° 0 mm 2 mps 768 mmHg 94%
    03:00 +7°C° 0 mm 2 mps 768 mmHg 94%
    04:00 +8°C° 0 mm 1 mps 768 mmHg 92%
    05:00 +7°C° 0 mm 1 mps 767 mmHg 90%
    06:00 +7°C° 0 mm 1 mps 767 mmHg 88%
    07:00 +9°C° 0 mm 1 mps 767 mmHg 80%
    08:00 +10°C° 0 mm 2 mps 767 mmHg 71%
    09:00 +13°C° 0 mm 2 mps 767 mmHg 62%
    10:00 +14°C° 0 mm 2 mps 767 mmHg 57%
    11:00 +16°C° 0 mm 2 mps 767 mmHg 51%
    12:00 +17°C° 0 mm 2 mps 766 mmHg 46%
    13:00 +17°C° 0 mm 2 mps 766 mmHg 46%
    14:00 +18°C° 0 mm 2 mps 766 mmHg 46%
    15:00 +18°C° 0 mm 2 mps 765 mmHg 45%
    16:00 +17°C° 0 mm 2 mps 765 mmHg 51%
    17:00 +15°C° 0 mm 2 mps 765 mmHg 56%
    18:00 +14°C° 0 mm 2 mps 765 mmHg 61%
    19:00 +13°C° 0 mm 2 mps 765 mmHg 66%
    20:00 +10°C° 0 mm 2 mps 766 mmHg 72%
    21:00 +9°C° 0 mm 2 mps 766 mmHg 77%
    22:00 +9°C° 0 mm 2 mps 766 mmHg 81%
    23:00 +9°C° 0 mm 1 mps 766 mmHg 85%

    Tomorrow, 23 March, Saturday

    Time Temperature Precipitation Wind Pressure Humidity
    00:00 +9°C° 0 mm 1 mps 766 mmHg 88%
    01:00 +9°C° 0 mm 1 mps 766 mmHg 90%
    02:00 +8°C° 0 mm 1 mps 766 mmHg 91%
    03:00 +8°C° 0 mm 1 mps 766 mmHg 92%
    04:00 +8°C° 0 mm 1 mps 766 mmHg 93%
    05:00 +8°C° 0 mm 1 mps 766 mmHg 94%
    06:00 +7°C° 0 mm 1 mps 766 mmHg 95%
    07:00 +9°C° 0 mm 1 mps 767 mmHg 91%
    08:00 +11°C° 0 mm 1 mps 767 mmHg 86%
    09:00 +12°C° 0 mm 1 mps 767 mmHg 82%
    10:00 +13°C° 0 mm 1 mps 767 mmHg 78%
    11:00 +14°C° 0 mm 2 mps 768 mmHg 73%
    12:00 +15°C° 0 mm 2 mps 768 mmHg 69%
    13:00 +14°C° 0 mm 2 mps 768 mmHg 71%
    14:00 +13°C° 0 mm 3 mps 767 mmHg 73%
    15:00 +13°C° 0 mm 3 mps 767 mmHg 75%
    16:00 +12°C° 0 mm 4 mps 768 mmHg 76%
    17:00 +11°C° 0 mm 4 mps 768 mmHg 77%
    18:00 +10°C° 0 mm 4 mps 768 mmHg 77%
    19:00 +10°C° 0 mm 4 mps 768 mmHg 75%
    20:00 +8°C° 0 mm 4 mps 768 mmHg 73%
    21:00 +8°C° 0 mm 4 mps 769 mmHg 71%
    22:00 +8°C° 0 mm 3 mps 768 mmHg 71%
    23:00 +8°C° 0 mm 3 mps 768 mmHg 71%

    Day after tomorrow, 24 March, Sunday

    Time Temperature Precipitation Wind Pressure Humidity
    00:00 +7°C° 0 mm 3 mps 768 mmHg 71%
    01:00 +7°C° 0 mm 3 mps 768 mmHg 71%
    02:00 +6°C° 0 mm 4 mps 768 mmHg 71%
    03:00 +6°C° 0 mm 4 mps 768 mmHg 71%
    04:00 +5°C° 0 mm 4 mps 768 mmHg 71%
    05:00 +5°C° 0 mm 4 mps 768 mmHg 70%
    06:00 +5°C° 0 mm 4 mps 769 mmHg 69%
    07:00 +6°C° 0 mm 4 mps 769 mmHg 66%
    08:00 +7°C° 0 mm 3 mps 769 mmHg 63%
    09:00 +8°C° 0 mm 3 mps 769 mmHg 59%
    10:00 +8°C° 0 mm 4 mps 769 mmHg 55%
    11:00 +10°C° 0 mm 4 mps 769 mmHg 50%
    12:00 +11°C° 0 mm 4 mps 769 mmHg 45%
    13:00 +11°C° 0 mm 4 mps 769 mmHg 46%
    14:00 +10°C° 0 mm 5 mps 769 mmHg 47%
    15:00 +10°C° 0 mm 5 mps 769 mmHg 47%
    16:00 +10°C° 0 mm 4 mps 769 mmHg 52%
    17:00 +7°C° 0 mm 4 mps 769 mmHg 56%
    18:00 +6°C° 0 mm 4 mps 770 mmHg 60%
    19:00 +5°C° 0 mm 3 mps 770 mmHg 64%
    20:00 +5°C° 0 mm 3 mps 770 mmHg 67%
    21:00 +4°C° 0 mm 3 mps 771 mmHg 70%
    22:00 +5°C° 0 mm 2 mps 771 mmHg 73%
    23:00 +4°C° 0 mm 2 mps 771 mmHg 77%

    25 March, Monday

    Time Temperature Precipitation Wind Pressure Humidity
    00:00 +4°C° 0 mm 2 mps 771 mmHg 80%
    01:00 +5°C° 0 mm 1 mps 771 mmHg 81%
    02:00 +4°C° 0 mm 1 mps 771 mmHg 82%
    03:00 +4°C° 0 mm 1 mps 771 mmHg 83%
    04:00 +4°C° 0 mm 1 mps 771 mmHg 83%
    05:00 +4°C° 0 mm 1 mps 771 mmHg 84%
    06:00 +4°C° 0 mm 1 mps 771 mmHg 84%
    07:00 +6°C° 0 mm 1 mps 771 mmHg 79%
    08:00 +7°C° 0 mm 2 mps 771 mmHg 74%
    09:00 +9°C° 0 mm 3 mps 771 mmHg 70%
    10:00 +10°C° 0 mm 3 mps 771 mmHg 65%
    11:00 +11°C° 0 mm 4 mps 771 mmHg 61%
    12:00 +12°C° 0 mm 4 mps 771 mmHg 57%
    13:00 +12°C° 0 mm 5 mps 771 mmHg 57%
    14:00 +12°C° 0 mm 5 mps 771 mmHg 57%
    15:00 +12°C° 0 mm 5 mps 770 mmHg 57%
    16:00 +10°C° 0 mm 4 mps 770 mmHg 63%
    17:00 +8°C° 0 mm 4 mps 770 mmHg 69%
    18:00 +8°C° 0 mm 3 mps 771 mmHg 75%
    19:00 +7°C° 0 mm 3 mps 771 mmHg 80%
    20:00 +5°C° 0 mm 3 mps 771 mmHg 84%
    21:00 +4°C° 0 mm 3 mps 772 mmHg 89%
    22:00 +5°C° 0 mm 2 mps 772 mmHg 90%
    23:00 +5°C° 0 mm 2 mps 772 mmHg 90%

    26 March, Tuesday

    Time Temperature Precipitation Wind Pressure Humidity
    00:00 +5°C° 0 mm 2 mps 772 mmHg 91%
    01:00 +4°C° 0 mm 2 mps 772 mmHg 92%
    02:00 +4°C° 0 mm 2 mps 772 mmHg 92%
    03:00 +4°C° 0 mm 2 mps 772 mmHg 92%
    04:00 +5°C° 0 mm 1 mps 772 mmHg 92%
    05:00 +5°C° 0 mm 1 mps 772 mmHg 92%
    06:00 +4°C° 0 mm 1 mps 772 mmHg 92%
    07:00 +6°C° 0 mm 1 mps 772 mmHg 85%
    08:00 +8°C° 0 mm 1 mps 772 mmHg 78%
    09:00 +10°C° 0 mm 1 mps 772 mmHg 71%
    10:00 +11°C° 0 mm 1 mps 772 mmHg 66%
    11:00 +12°C° 0 mm 1 mps 772 mmHg 60%
    12:00 +13°C° 0 mm 1 mps 772 mmHg 55%
    13:00 +14°C° 0 mm 2 mps 771 mmHg 54%
    14:00 +14°C° 0 mm 2 mps 771 mmHg 53%
    15:00 +13°C° 0 mm 3 mps 771 mmHg 52%
    16:00 +12°C° 0 mm 3 mps 771 mmHg 57%
    17:00 +10°C° 0 mm 3 mps 770 mmHg 63%
    18:00 +9°C° 0 mm 3 mps 770 mmHg 68%
    19:00 +8°C° 0 mm 2 mps 771 mmHg 71%
    20:00 +7°C° 0 mm 2 mps 771 mmHg 73%
    21:00 +6°C° 0 mm 2 mps 771 mmHg 75%
    22:00 +6°C° 0 mm 2 mps 771 mmHg 76%
    23:00 +7°C° 0 mm 1 mps 771 mmHg 78%

    27 March, Wednesday

    Time Temperature Precipitation Wind Pressure Humidity
    00:00 +6°C° 0 mm 1 mps 771 mmHg 79%
    01:00 +6°C° 0 mm 1 mps 771 mmHg 81%
    02:00 +6°C° 0 mm 1 mps 771 mmHg 82%
    03:00 +6°C° 0 mm 1 mps 770 mmHg 83%
    04:00 +5°C° 0 mm 1 mps 770 mmHg 84%
    05:00 +5°C° 0 mm 1 mps 770 mmHg 84%
    06:00 +4°C° 0 mm 0 mps 770 mmHg 85%
    07:00 +7°C° 0 mm 1 mps 770 mmHg 78%
    08:00 +9°C° 0 mm 1 mps 770 mmHg 71%
    09:00 +11°C° 0 mm 1 mps 770 mmHg 64%
    10:00 +13°C° 0 mm 1 mps 770 mmHg 58%
    11:00 +14°C° 0 mm 1 mps 770 mmHg 53%
    12:00 +15°C° 0 mm 2 mps 770 mmHg 47%
    13:00 +16°C° 0 mm 2 mps 770 mmHg 46%
    14:00 +16°C° 0 mm 2 mps 769 mmHg 45%
    15:00 +17°C° 0 mm 2 mps 769 mmHg 43%
    16:00 +15°C° 0 mm 2 mps 769 mmHg 48%
    17:00 +14°C° 0 mm 2 mps 769 mmHg 53%
    18:00 +12°C° 0 mm 2 mps 769 mmHg 58%
    19:00 +10°C° 0 mm 2 mps 769 mmHg 61%
    20:00 +9°C° 0 mm 2 mps 769 mmHg 64%
    21:00 +9°C° 0 mm 2 mps 769 mmHg 66%
    22:00 +8°C° 0 mm 2 mps 769 mmHg 68%
    23:00 +8°C° 0 mm 2 mps 769 mmHg 69%
    Show more